GGBNI BIKF-ENJA

Flight info

Callsign GGBNI
Flight time 1h 29m
Altitude 39000
Route M079F390 LUTER3D LUTER DCT 70N010W DCT
Aircraft A21N/M-SDE2E3FGHIRWXY/LB1

Departure

Time 2026-05-09 17:13
Airport Keflavik International Airport (BIKF)

Arrival

Time 2026-05-09 18:42
Airport Jan Mayensfield (ENJA)
Time Latitude Longitude Altitude Speed Heading
2026-05-09 16:43 63.97706 -22.64681 122 ft 0 kts 171°
2026-05-09 17:06 63.97705 -22.64680 122 ft 2 kts 171°
2026-05-09 17:06 63.97638 -22.64617 120 ft 12 kts 107°
2026-05-09 17:06 63.97610 -22.64408 119 ft 15 kts 104°
2026-05-09 17:07 63.97581 -22.64150 122 ft 18 kts 107°
2026-05-09 17:07 63.97592 -22.63975 125 ft 21 kts 357°
2026-05-09 17:07 63.97767 -22.63888 128 ft 21 kts 27°
2026-05-09 17:07 63.97769 -22.63565 136 ft 24 kts 104°
2026-05-09 17:08 63.97724 -22.63176 139 ft 27 kts 105°
2026-05-09 17:08 63.97621 -22.62290 144 ft 31 kts 105°
2026-05-09 17:08 63.97562 -22.61801 149 ft 33 kts 105°
2026-05-09 17:09 63.97500 -22.61276 160 ft 36 kts 106°
2026-05-09 17:09 63.97518 -22.60941 171 ft 20 kts
2026-05-09 17:09 63.97670 -22.60941 174 ft 23 kts
2026-05-09 17:09 63.97843 -22.60940 175 ft 26 kts
2026-05-09 17:10 63.98030 -22.60940 174 ft 28 kts 360°
2026-05-09 17:10 63.98227 -22.60941 170 ft 29 kts 359°
2026-05-09 17:10 63.98425 -22.60940 171 ft 19 kts
2026-05-09 17:10 63.98497 -22.60731 179 ft 22 kts 98°
2026-05-09 17:11 63.98493 -22.60675 180 ft 0 kts 100°
2026-05-09 17:11 63.98494 -22.60601 182 ft 14 kts 59°
2026-05-09 17:11 63.98509 -22.60659 181 ft 7 kts 255°
2026-05-09 17:11 63.98504 -22.60736 179 ft 2 kts 274°
2026-05-09 17:12 63.98504 -22.60797 177 ft 17 kts 269°
2026-05-09 17:12 63.98503 -22.61165 170 ft 0 kts 267°
2026-05-09 17:12 63.98503 -22.61185 169 ft 2 kts 269°
2026-05-09 17:12 63.98502 -22.61450 166 ft 61 kts 270°
2026-05-09 17:13 63.98505 -22.63261 151 ft 164 kts 269°
2026-05-09 17:13 63.98511 -22.65966 1162 ft 175 kts 270°
2026-05-09 17:13 63.98497 -22.68853 2441 ft 189 kts 270°
2026-05-09 17:13 63.98495 -22.71960 3745 ft 202 kts 270°
2026-05-09 17:14 63.98345 -22.75207 5163 ft 212 kts 255°
2026-05-09 17:14 63.97551 -22.78105 6660 ft 227 kts 228°
2026-05-09 17:14 63.96064 -22.79913 7693 ft 262 kts 196°
2026-05-09 17:14 63.94199 -22.80007 9011 ft 274 kts 180°
2026-05-09 17:15 63.92296 -22.78972 10349 ft 289 kts 159°
2026-05-09 17:15 63.90687 -22.76109 11512 ft 306 kts 131°
2026-05-09 17:15 63.89642 -22.71664 12084 ft 338 kts 105°
2026-05-09 17:15 63.89361 -22.66176 12623 ft 366 kts 88°
2026-05-09 17:16 63.89415 -22.60130 13204 ft 395 kts 87°
2026-05-09 17:17 63.95551 -22.16297 20088 ft 440 kts 62°
2026-05-09 17:18 63.96666 -22.09852 20905 ft 445 kts 62°
2026-05-09 17:18 63.97817 -22.03188 21736 ft 451 kts 62°
2026-05-09 17:18 63.98838 -21.96436 22528 ft 461 kts 66°
2026-05-09 17:18 63.99755 -21.89425 23316 ft 466 kts 66°
2026-05-09 17:19 64.00677 -21.82307 24007 ft 471 kts 66°
2026-05-09 17:19 64.01607 -21.75073 24573 ft 477 kts 66°
2026-05-09 17:19 64.02537 -21.67800 25154 ft 481 kts 66°
2026-05-09 17:19 64.03471 -21.60421 25728 ft 485 kts 65°
2026-05-09 17:20 64.04406 -21.53010 26286 ft 490 kts 65°
2026-05-09 17:20 64.05361 -21.45482 26819 ft 493 kts 65°
2026-05-09 17:20 64.06315 -21.37958 27303 ft 498 kts 65°
2026-05-09 17:20 64.07275 -21.30334 27857 ft 500 kts 65°
2026-05-09 17:21 64.08206 -21.22668 28502 ft 503 kts 67°
2026-05-09 17:21 64.08755 -21.14634 29129 ft 514 kts 76°
2026-05-09 17:21 64.09082 -21.06511 29780 ft 515 kts 76°
2026-05-09 17:21 64.09404 -20.98330 30435 ft 514 kts 76°
2026-05-09 17:22 64.09721 -20.90237 31127 ft 511 kts 75°
2026-05-09 17:22 64.10037 -20.82180 31683 ft 510 kts 74°
2026-05-09 17:22 64.10245 -20.76800 32011 ft 509 kts 74°
2026-05-09 17:22 64.10557 -20.68760 32525 ft 508 kts 74°
2026-05-09 17:23 64.10867 -20.60684 33000 ft 508 kts 73°
2026-05-09 17:23 64.11184 -20.52674 33482 ft 504 kts 72°
2026-05-09 17:23 64.11880 -20.44991 33935 ft 481 kts 58°
2026-05-09 17:23 64.13229 -20.38240 34348 ft 453 kts 44°
2026-05-09 17:25 64.15356 -20.32038 34726 ft 426 kts 31°
2026-05-09 17:27 64.18277 -20.26840 35189 ft 402 kts 18°
2026-05-09 17:28 64.20675 -20.23557 35557 ft 400 kts 17°
2026-05-09 17:28 64.23070 -20.20317 35900 ft 401 kts 17°
2026-05-09 17:28 64.25474 -20.17010 36314 ft 403 kts 18°
2026-05-09 17:28 64.27865 -20.13657 36707 ft 403 kts 19°
2026-05-09 17:29 64.30258 -20.10280 37059 ft 402 kts 19°
2026-05-09 17:29 64.32636 -20.06921 37353 ft 403 kts 19°
2026-05-09 17:29 64.35031 -20.03526 37645 ft 403 kts 19°
2026-05-09 17:29 64.37423 -20.00120 37917 ft 403 kts 19°
2026-05-09 17:30 64.39814 -19.96716 38193 ft 403 kts 19°
2026-05-09 17:30 64.42205 -19.93320 38464 ft 404 kts 20°
2026-05-09 17:30 64.44565 -19.89957 38747 ft 404 kts 20°
2026-05-09 17:30 64.46983 -19.86495 39028 ft 405 kts 20°
2026-05-09 17:31 64.49380 -19.83065 39248 ft 405 kts 20°
2026-05-09 17:31 64.51803 -19.79598 39308 ft 411 kts 20°
2026-05-09 17:32 64.61708 -19.65319 39315 ft 426 kts 21°
2026-05-09 17:32 64.64214 -19.61683 39301 ft 431 kts 22°
2026-05-09 17:33 64.69331 -19.54226 39277 ft 437 kts 22°
2026-05-09 17:33 64.74498 -19.46640 39399 ft 435 kts 22°
2026-05-09 17:33 64.76988 -19.42928 39366 ft 418 kts 22°
2026-05-09 17:34 64.79428 -19.39341 39328 ft 412 kts 21°
2026-05-09 17:35 64.96088 -19.12801 39322 ft 416 kts 25°
2026-05-09 17:36 65.00862 -19.05019 39282 ft 418 kts 25°
2026-05-09 17:36 65.05667 -18.97215 39283 ft 420 kts 25°
2026-05-09 17:37 65.10503 -18.89377 39276 ft 422 kts 25°
2026-05-09 17:37 65.15353 -18.81505 39269 ft 421 kts 25°
2026-05-09 17:38 65.20169 -18.73663 39267 ft 422 kts 25°
2026-05-09 17:39 65.27432 -18.61780 39272 ft 422 kts 25°
2026-05-09 17:39 65.32326 -18.53805 39301 ft 424 kts 25°
2026-05-09 17:40 65.37203 -18.46001 39282 ft 425 kts 25°
2026-05-09 17:40 65.42126 -18.38123 39280 ft 425 kts 25°
2026-05-09 17:41 65.47050 -18.30228 39248 ft 424 kts 25°
2026-05-09 17:41 65.51965 -18.22314 39266 ft 425 kts 25°
2026-05-09 17:42 65.56882 -18.14385 39259 ft 427 kts 25°
2026-05-09 17:42 65.61835 -18.06381 39272 ft 426 kts 25°
2026-05-09 17:43 65.66770 -17.98378 39269 ft 428 kts 25°
2026-05-09 17:43 65.71704 -17.90352 39253 ft 427 kts 25°
2026-05-09 17:44 65.76631 -17.82314 39267 ft 426 kts 25°
2026-05-09 17:44 65.81555 -17.74252 39289 ft 427 kts 25°
2026-05-09 17:45 65.86485 -17.66153 39305 ft 427 kts 25°
2026-05-09 17:45 65.91407 -17.58040 39312 ft 429 kts 25°
2026-05-09 17:46 65.96361 -17.49859 39309 ft 430 kts 25°
2026-05-09 17:46 66.01337 -17.41640 39345 ft 431 kts 25°
2026-05-09 17:47 66.06324 -17.33510 39322 ft 431 kts 25°
2026-05-09 17:47 66.11329 -17.25345 39316 ft 431 kts 25°
2026-05-09 17:48 66.16335 -17.17153 39317 ft 432 kts 25°
2026-05-09 17:48 66.21349 -17.08919 39319 ft 432 kts 25°
2026-05-09 17:49 66.26348 -17.00682 39322 ft 431 kts 25°
2026-05-09 17:49 66.31355 -16.92399 39328 ft 432 kts 25°
2026-05-09 17:50 66.36328 -16.84141 39317 ft 434 kts 25°
2026-05-09 17:50 66.43872 -16.71696 39327 ft 433 kts 25°
2026-05-09 17:51 66.48904 -16.63410 39317 ft 433 kts 25°
2026-05-09 17:51 66.53936 -16.55098 39317 ft 433 kts 25°
2026-05-09 17:52 66.58978 -16.46749 39317 ft 434 kts 25°
2026-05-09 17:52 66.64012 -16.38379 39314 ft 434 kts 25°
2026-05-09 17:53 66.69063 -16.29962 39313 ft 435 kts 25°
2026-05-09 17:53 66.74102 -16.21544 39318 ft 435 kts 25°
2026-05-09 17:54 66.79133 -16.13195 39322 ft 435 kts 26°
2026-05-09 17:54 66.84211 -16.04799 39314 ft 435 kts 26°
2026-05-09 17:55 66.89285 -15.96382 39306 ft 436 kts 26°
2026-05-09 17:55 66.94363 -15.87928 39306 ft 435 kts 25°
2026-05-09 17:56 66.99423 -15.79468 39302 ft 435 kts 26°
2026-05-09 17:57 67.07021 -15.66712 39294 ft 435 kts 26°
2026-05-09 17:57 67.12088 -15.58169 39293 ft 435 kts 26°
2026-05-09 17:58 67.17167 -15.49643 39306 ft 436 kts 26°
2026-05-09 17:58 67.22247 -15.41136 39286 ft 436 kts 26°
2026-05-09 17:59 67.27308 -15.32630 39288 ft 436 kts 26°
2026-05-09 17:59 67.32397 -15.24048 39292 ft 436 kts 26°
2026-05-09 18:00 67.37471 -15.15465 39280 ft 436 kts 26°
2026-05-09 18:00 67.42547 -15.06847 39278 ft 436 kts 26°
2026-05-09 18:01 67.47632 -14.98179 39277 ft 436 kts 26°
2026-05-09 18:01 67.52713 -14.89508 39302 ft 438 kts 26°
2026-05-09 18:02 67.57847 -14.80837 39272 ft 440 kts 26°
2026-05-09 18:02 67.62991 -14.72142 39265 ft 440 kts 26°
2026-05-09 18:03 67.68130 -14.63420 39250 ft 440 kts 26°
2026-05-09 18:03 67.73272 -14.54660 39252 ft 439 kts 26°
2026-05-09 18:04 67.78401 -14.45882 39252 ft 439 kts 26°
2026-05-09 18:04 67.83503 -14.37117 39235 ft 439 kts 26°
2026-05-09 18:05 67.88633 -14.28279 39234 ft 440 kts 26°
2026-05-09 18:05 67.93781 -14.19432 39263 ft 442 kts 26°
2026-05-09 18:06 67.98970 -14.10591 39231 ft 443 kts 26°
2026-05-09 18:06 68.04163 -14.01724 39225 ft 444 kts 26°
2026-05-09 18:07 68.09366 -13.92811 39227 ft 444 kts 26°
2026-05-09 18:07 68.14567 -13.83864 39225 ft 444 kts 26°
2026-05-09 18:08 68.19756 -13.74901 39227 ft 444 kts 26°
2026-05-09 18:08 68.24940 -13.65910 39228 ft 443 kts 26°
2026-05-09 18:09 68.30128 -13.56880 39227 ft 443 kts 27°
2026-05-09 18:09 68.34451 -13.49399 39250 ft 444 kts 27°
2026-05-09 18:10 68.39666 -13.40433 39233 ft 445 kts 27°
2026-05-09 18:10 68.44925 -13.31533 39230 ft 444 kts 25°
2026-05-09 18:11 68.50240 -13.23033 39229 ft 443 kts 25°
2026-05-09 18:11 68.55552 -13.14406 39225 ft 444 kts 25°
2026-05-09 18:12 68.60831 -13.05721 39227 ft 444 kts 25°
2026-05-09 18:12 68.66118 -12.96970 39230 ft 444 kts 25°
2026-05-09 18:13 68.71407 -12.88173 39242 ft 444 kts 26°
2026-05-09 18:13 68.76684 -12.79345 39233 ft 445 kts 26°
2026-05-09 18:14 68.81973 -12.70426 39222 ft 445 kts 26°
2026-05-09 18:14 68.87231 -12.61532 39221 ft 446 kts 26°
2026-05-09 18:15 68.92513 -12.52539 39224 ft 446 kts 26°
2026-05-09 18:15 68.97798 -12.43479 39228 ft 446 kts 26°
2026-05-09 18:16 69.03084 -12.34389 39212 ft 446 kts 26°
2026-05-09 18:16 69.08356 -12.25261 39209 ft 446 kts 27°
2026-05-09 18:17 69.13626 -12.16089 39223 ft 447 kts 27°
2026-05-09 18:17 69.18919 -12.06811 39224 ft 448 kts 27°
2026-05-09 18:18 69.24207 -11.97495 39219 ft 449 kts 27°
2026-05-09 18:18 69.29500 -11.88089 39211 ft 449 kts 27°
2026-05-09 18:19 69.34793 -11.78675 39196 ft 449 kts 27°
2026-05-09 18:19 69.42717 -11.64462 39194 ft 449 kts 28°
2026-05-09 18:20 69.47987 -11.54932 39203 ft 449 kts 28°
2026-05-09 18:20 69.53255 -11.45343 39185 ft 450 kts 28°
2026-05-09 18:21 69.58491 -11.35746 39183 ft 450 kts 28°
2026-05-09 18:21 69.63772 -11.26021 39192 ft 450 kts 28°
2026-05-09 18:22 69.69030 -11.16264 39183 ft 450 kts 28°
2026-05-09 18:22 69.74294 -11.06467 39182 ft 450 kts 28°
2026-05-09 18:23 69.79525 -10.96504 39176 ft 450 kts 29°
2026-05-09 18:23 69.84778 -10.86557 39177 ft 450 kts 28°
2026-05-09 18:24 69.90019 -10.76617 39189 ft 450 kts 29°
2026-05-09 18:25 69.97986 -10.61376 39170 ft 460 kts 29°
2026-05-09 18:25 70.03317 -10.51207 39172 ft 461 kts 29°
2026-05-09 18:26 70.08688 -10.40885 39163 ft 462 kts 30°
2026-05-09 18:26 70.14039 -10.30442 39161 ft 462 kts 30°
2026-05-09 18:27 70.19379 -10.19947 39146 ft 462 kts 30°
2026-05-09 18:27 70.24719 -10.09398 39145 ft 462 kts 30°
2026-05-09 18:28 70.30065 -9.98781 39148 ft 462 kts 30°
2026-05-09 18:28 70.35389 -9.88116 39130 ft 462 kts 30°
2026-05-09 18:29 70.40712 -9.77374 39128 ft 461 kts 30°
2026-05-09 18:29 70.43338 -9.72058 38838 ft 453 kts 30°
2026-05-09 18:29 70.45899 -9.66857 38126 ft 450 kts 30°
2026-05-09 18:29 70.48454 -9.61590 37410 ft 445 kts 31°
2026-05-09 18:30 70.51000 -9.56400 36742 ft 439 kts 30°
2026-05-09 18:30 70.53511 -9.51288 36055 ft 433 kts 30°
2026-05-09 18:30 70.55972 -9.46256 35406 ft 426 kts 31°
2026-05-09 18:30 70.58408 -9.41248 34761 ft 420 kts 30°
2026-05-09 18:31 70.60799 -9.36308 34136 ft 414 kts 31°
2026-05-09 18:31 70.63166 -9.31390 33146 ft 414 kts 31°
2026-05-09 18:31 70.65556 -9.26409 31812 ft 422 kts 31°
2026-05-09 18:31 70.67995 -9.21335 30432 ft 431 kts 31°
2026-05-09 18:32 70.70481 -9.16141 28778 ft 437 kts 32°
2026-05-09 18:32 70.72992 -9.10871 27150 ft 441 kts 32°
2026-05-09 18:32 70.75522 -9.05554 25592 ft 442 kts 33°
2026-05-09 18:32 70.78042 -9.00236 22927 ft 454 kts 34°
2026-05-09 18:33 70.80705 -8.94490 21271 ft 466 kts 35°
2026-05-09 18:33 70.83275 -8.88744 20268 ft 452 kts 36°
2026-05-09 18:33 70.85732 -8.83003 19386 ft 437 kts 37°
2026-05-09 18:33 70.88033 -8.77361 18540 ft 414 kts 39°
2026-05-09 18:34 70.90223 -8.71770 15971 ft 423 kts 40°
2026-05-09 18:34 70.92326 -8.65190 14781 ft 427 kts 53°
2026-05-09 18:34 70.93528 -8.57116 13898 ft 416 kts 75°
2026-05-09 18:34 70.93604 -8.48318 12757 ft 414 kts 100°
2026-05-09 18:35 70.92582 -8.40528 11727 ft 401 kts 122°
2026-05-09 18:35 70.90672 -8.34298 10182 ft 401 kts 141°
2026-05-09 18:35 70.88132 -8.30797 9619 ft 380 kts 176°
2026-05-09 18:35 70.85670 -8.31050 9856 ft 336 kts 187°
2026-05-09 18:36 70.83534 -8.32859 9624 ft 311 kts 208°
2026-05-09 18:36 70.81874 -8.36628 9277 ft 289 kts 232°
2026-05-09 18:36 70.80770 -8.41495 8960 ft 272 kts 243°
2026-05-09 18:36 70.80060 -8.46535 8650 ft 253 kts 263°
2026-05-09 18:37 70.80005 -8.51704 8486 ft 238 kts 276°
2026-05-09 18:37 70.80076 -8.56694 8158 ft 234 kts 276°
2026-05-09 18:37 70.80200 -8.61571 7742 ft 229 kts 292°
2026-05-09 18:37 70.80959 -8.65686 7341 ft 222 kts 308°
2026-05-09 18:38 70.81577 -8.69957 7023 ft 227 kts 284°
2026-05-09 18:38 70.81710 -8.74750 6664 ft 223 kts 289°
2026-05-09 18:38 70.82451 -8.78596 6271 ft 209 kts 322°
2026-05-09 18:40 70.89141 -8.74187 2470 ft 129 kts 22°
2026-05-09 18:40 70.89933 -8.73170 1751 ft 117 kts
2026-05-09 18:40 70.90695 -8.72651 1014 ft 110 kts
2026-05-09 18:41 70.91466 -8.72223 608 ft 115 kts
2026-05-09 18:41 70.92236 -8.71381 321 ft 128 kts 31°
2026-05-09 18:41 70.92851 -8.69222 298 ft 132 kts 34°
2026-05-09 18:41 70.93531 -8.67433 180 ft 126 kts 25°
2026-05-09 18:42 70.94197 -8.65758 44 ft 119 kts 27°
2026-05-09 18:42 70.94678 -8.64559 37 ft 41 kts 37°
2026-05-09 18:42 70.94864 -8.64081 42 ft 24 kts 42°
2026-05-09 18:42 70.94945 -8.63841 38 ft 8 kts 20°
2026-05-09 18:43 70.94949 -8.63884 38 ft 4 kts 227°
2026-05-09 18:43 70.94941 -8.63901 37 ft 8 kts 216°
2026-05-09 18:43 70.94868 -8.64072 42 ft 23 kts 216°
2026-05-09 18:43 70.94737 -8.64396 39 ft 25 kts 220°
2026-05-09 18:44 70.94602 -8.64751 39 ft 26 kts 223°
2026-05-09 18:44 70.94461 -8.65132 41 ft 28 kts 221°
2026-05-09 18:44 70.94324 -8.65492 36 ft 25 kts 220°
2026-05-09 18:44 70.94202 -8.65805 39 ft 19 kts 220°
2026-05-09 18:45 70.94115 -8.66030 37 ft 13 kts 220°
2026-05-09 18:45 70.94150 -8.66259 45 ft 18 kts 11°
2026-05-09 18:45 70.94171 -8.66170 41 ft 0 kts 127°